Regional Weather Roundup
Issued by NWS

Home | Current Version | Previous Version | Graphics & Text | Print | Product List | Glossary On
Versions: 1 2 3 4 5 6 7 8 9 10 11 12 13 14 15 16 17 18 19 20 21 22 23 24 25 26 27 28 29 30 31 32 33 34 35 36 37 38 39 40 41 42 43 44 45 46 47 48 49 50
000
ASUS43 KFSD 301002
RWRSD

WEATHER ROUNDUP FOR SOUTH DAKOTA
NATIONAL WEATHER SERVICE SIOUX FALLS SD
400 AM CST FRI JAN 30 2015

NOTE: "FAIR" INDICATES FEW OR NO CLOUDS BELOW 12,000 FEET WITH NO
SIGNIFICANT WEATHER AND/OR OBSTRUCTIONS TO VISIBILITY.


SDZ001>005-009-010-012>017-301100-
NORTHWEST AND NORTH CENTRAL SOUTH DAKOTA

CITY           SKY/WX    TMP DP  RH WIND       PRES   REMARKS
BUFFALO          N/A     24  16  71 S7        30.15F WCI  16
FAITH            N/A     21  17  84 S17       30.24F WCI   7
MOBRIDGE       CLEAR     20  17  88 S13       30.32F WCI   7
$$

SDZ012>016-024>037-041>051-057-063-072>074-301100-
SOUTHWEST AND SOUTH CENTRAL SOUTH DAKOTA

CITY           SKY/WX    TMP DP  RH WIND       PRES   REMARKS
RAPID CTY ARPT PTCLDY    23  14  68 E5        30.23F WCI  17
PIERRE         CLEAR     21  18  88 E10       30.36F WCI  10
CUSTER         PTCLDY    26  17  68 SW5       30.21F WCI  20
ELLSWORTH AFB  PTCLDY    24  15  68 W3        30.21F
PHILIP         PTCLDY    18  15  88 E7        30.30F WCI   9
PINE RIDGE     PTCLDY    32  18  56 SW9       30.27F WCI  24
WINNER         FAIR      23  19  85 SE10      30.39F WCI  12
$$

SDZ004>011-016>023-039-040-301100-
NORTHEAST SOUTH DAKOTA

CITY           SKY/WX    TMP DP  RH WIND       PRES   REMARKS
ABERDEEN       CLEAR     14  11  87 SE3       30.45F
WATERTOWN      CLOUDY    17  13  84 S8        30.44F WCI   7
SISSETON         N/A     13  10  88 S9        30.47F WCI   1
$$

SDZ017-020-022-023-036>040-048>070-301100-
SOUTHEAST SOUTH DAKOTA

CITY           SKY/WX    TMP DP  RH WIND       PRES   REMARKS
SIOUX FALLS    CLOUDY    21  16  81 S5        30.49F WCI  15
HURON          CLEAR     18  15  88 S8        30.45F WCI   8
MITCHELL       CLEAR     19  16  88 S7        30.48F WCI  10
YANKTON        CLEAR     18  12  79 CALM      30.51F
$$

ABBREVIATIONS USED IN REMARKS
   TC - TEMPERATURE IN CELSIUS
  WCI - WIND CHILL INDEX
   HX - HEAT INDEX
  VSB - VISIBILITY



USA.gov is the U.S. government's official web portal to all federal, state and local government web resources and services.